Siemreap, Cambodia

2:18 AM ICT on December 06, 2016 (GMT +0700)
Siem Reap

Weather History for VDSR - February, 2014

Change the Weather History Date:

Saturday, February 22, 2014

  Actual Average Record
Temperature  
Mean Temperature 80 °F -  
Max Temperature 89 °F - - ()
Min Temperature 71 °F - - ()
Cooling Degree Days 15    
Growing Degree Days 30 (Base 50)    
Moisture  
Dew Point 68 °F    
Average Humidity 64    
Maximum Humidity 88    
Minimum Humidity 43    
Precipitation  
Precipitation 0.00 in - - ()
Sea Level Pressure  
Sea Level Pressure 29.90 in    
Wind  
Wind Speed 3 mph ()    
Max Wind Speed 8 mph    
Max Gust Speed -    
Visibility 4.9 miles    
Events      
T = Trace of Precipitation, MM = Missing Value Source: Averaged Metar Reports

Daily Weather History Graph

Daily Weather History Graph

Search for Another Location

Airport or City:

Trip Planner

Search our weather history database for the weather conditions in past years. The results will help you decide how hot, cold, wet, or windy it might be!

Date:

Astronomy

Feb. 22, 2014 Rise Set
Actual Time 6:24 AM ICT 6:11 PM ICT
Civil Twilight 6:03 AM ICT 6:33 PM ICT
Nautical Twilight 5:38 AM ICT 6:58 PM ICT
Astronomical Twilight 5:13 AM ICT 7:23 PM ICT
Moon No Moon Rise 11:19 AM ICT (2/22)
Length of Visible Light 12h 30m
Length of Day
11h 47m
Waning Gibbous, 55% of the Moon is Illuminated
Feb 22
Waning Gibbous
Feb 23
Last Quarter
Mar 1
New
Mar 8
First Quarter
Mar 17
Full

Hourly Weather History & Observations

Time (ICT) Temp. Heat Index Dew Point Humidity Pressure Visibility Wind Dir Wind Speed Gust Speed Precip Events Conditions
12:00 AM 77.0 °F - 66.2 °F 69% 29.95 in 5.0 mi Calm Calm - N/A   Unknown
1:00 AM 75.2 °F - 66.2 °F 73% 29.92 in 5.0 mi Calm Calm - N/A   Unknown
7:00 AM 71.6 °F - 68.0 °F 88% 29.95 in 1.2 mi Calm Calm - N/A   Mist
7:30 AM 71.6 °F - 68.0 °F 88% 29.95 in 1.2 mi Variable 1.2 mph - N/A   Mist
8:00 AM 73.4 °F - 68.0 °F 83% 29.98 in 1.9 mi Variable 1.2 mph - N/A   Mist
8:30 AM 77.0 °F - 66.2 °F 69% 29.98 in 1.9 mi Variable 1.2 mph - N/A   Mist
9:00 AM 78.8 °F - 64.4 °F 61% 29.98 in 3.1 mi ESE 4.6 mph - N/A   Mist
9:30 AM 80.6 °F 82.3 °F 64.4 °F 58% 29.98 in 3.1 mi ESE 8.1 mph - N/A   Mist
10:00 AM 82.4 °F 83.9 °F 64.4 °F 54% 29.98 in 5.0 mi ESE 6.9 mph - N/A   Unknown
10:30 AM 82.4 °F 83.9 °F 64.4 °F 54% 29.98 in 5.0 mi East 8.1 mph - N/A   Unknown
11:00 AM 84.2 °F 85.6 °F 64.4 °F 51% 29.98 in 5.0 mi East 5.8 mph - N/A   Unknown
11:30 AM 84.2 °F 85.6 °F 64.4 °F 51% 29.95 in 5.6 mi ENE 5.8 mph - N/A   Unknown
12:00 PM 87.8 °F 88.5 °F 62.6 °F 43% 29.95 in 5.6 mi Variable 4.6 mph - N/A   Unknown
12:30 PM 87.8 °F 88.5 °F 62.6 °F 43% 29.92 in 5.6 mi SSE 4.6 mph - N/A   Unknown
1:00 PM 89.6 °F 92.2 °F 66.2 °F 46% 29.89 in 6.2 mi South 5.8 mph - N/A   Partly Cloudy
1:30 PM 87.8 °F 90.4 °F 66.2 °F 49% 29.89 in 6.2 mi WSW 6.9 mph - N/A   Partly Cloudy
2:00 PM 87.8 °F 91.4 °F 68.0 °F 52% 29.86 in 6.2 mi WSW 5.8 mph - N/A   Partly Cloudy
2:30 PM 87.8 °F 91.4 °F 68.0 °F 52% 29.86 in 6.2 mi SW 8.1 mph - N/A   Partly Cloudy
3:00 PM 87.8 °F 92.6 °F 69.8 °F 55% 29.83 in 6.2 mi WSW 8.1 mph - N/A   Partly Cloudy
3:30 PM 89.6 °F 94.7 °F 69.8 °F 52% 29.83 in 6.2 mi SW 6.9 mph - N/A   Partly Cloudy
4:00 PM 87.8 °F 92.6 °F 69.8 °F 55% 29.83 in 5.6 mi SSW 6.9 mph - N/A   Unknown
4:30 PM 86.0 °F 89.4 °F 68.0 °F 55% 29.83 in 5.6 mi SSW 8.1 mph - N/A   Unknown
5:00 PM 86.0 °F 89.4 °F 68.0 °F 55% 29.83 in 5.6 mi South 6.9 mph - N/A   Unknown
5:30 PM 86.0 °F 89.4 °F 68.0 °F 55% 29.83 in 5.6 mi SSW 5.8 mph - N/A   Unknown
6:00 PM 84.2 °F 87.3 °F 68.0 °F 58% 29.83 in 5.6 mi SSW 4.6 mph - N/A   Unknown
6:30 PM 82.4 °F 86.3 °F 69.8 °F 66% 29.83 in 5.6 mi SSE 3.5 mph - N/A   Unknown
7:00 PM 80.6 °F 84.6 °F 71.6 °F 74% 29.86 in 5.6 mi South 2.3 mph - N/A   Unknown
7:30 PM 78.8 °F - 71.6 °F 78% 29.86 in 5.0 mi South 2.3 mph - N/A   Unknown
8:00 PM 80.6 °F 83.9 °F 69.8 °F 70% 29.86 in 5.0 mi SE 2.3 mph - N/A   Unknown
8:30 PM 78.8 °F - 71.6 °F 78% 29.86 in 5.0 mi Calm Calm - N/A   Unknown
9:00 PM 80.6 °F 84.6 °F 71.6 °F 74% 29.89 in 5.0 mi ENE 3.5 mph - N/A   Unknown
9:30 PM 78.8 °F - 69.8 °F 74% 29.89 in 5.0 mi East 2.3 mph - N/A   Unknown
10:00 PM 77.0 °F - 71.6 °F 83% 29.89 in 5.0 mi NNE 2.3 mph - N/A   Unknown
10:30 PM 77.0 °F - 71.6 °F 83% 29.89 in 5.0 mi North 2.3 mph - N/A   Unknown
11:00 PM 77.0 °F - 71.6 °F 83% 29.89 in 5.0 mi NE 3.5 mph - N/A   Unknown
11:30 PM 77.0 °F - 71.6 °F 83% 29.89 in 5.0 mi NE 6.9 mph - N/A   Unknown